Find Starlink 5853

NORAD ID: 56881 Int'l Des: 2023-083 Owner: SPXS Country: US Constellation: starlink operational
LEOCIRCULAR

当前视图

正在加载3D地球...

About Starlink 5853

Starlink 5853 (NORAD 56881) is a starlink constellation satellite (v1.5) launched Jun 12, 2023 by SPXS of US. It operates in LEO, CIRCULAR orbit with a mass of 305.00 kg.

关于 Starlink 5853

正在加载描述...

即将过境

Passes for default location (London). Set your location on the main map for personalized predictions.

高度历史

Loading altitude history...

两行轨道根数

1 56881U 23083F 26171.20189957 -.00000572 00000-0 -11269-4 0 9991
2 56881 43.0031 226.6607 0001719 290.1565 69.9102 15.27568944167301
Epoch: Jun 20, 2026 • Age: 13 hours

当前状态

高度 482.9 km
速度 7.63 km/s
星下点 10.75°N, 148.84°W
发射日期 Jun 12, 2023
运行时间 3 years
类型 internet

技术详情

分类 Payload
质量 305.00 kg
干质量 290.00 kg
总质量 305.00 kg
长度 0.20 m
直径 2.80 m
跨度 9.00 m
形状 Box + pan
制造商 SPXS
平台类型 Starlink
阶段状态 In Orbit
所有者/国家 SPXS/US

Most Searched